Location: Budapest
(47.4979°N, 19.0402°E)
Time: 10:45:43
(UTC+02:00)

Envisat - Pass Details

Date: 26 May 2024
Orbit: 762 x 764 km, 98.3° (Epoch: 19 June)

Event Time Altitude Azimuth Distance (km) Brightness Sun altitude
Rises 03:18:29 0° 22° (NNE) 3,238 7.9 -12.7°
Reaches altitude 10° 03:21:03 10° 33° (NNE) 2,307 7.0 -12.5°
Maximum altitude 03:25:33 31° 95° (E) 1,313 4.6 -12.0°
Drops below altitude 10° 03:30:01 10° 157° (SSE) 2,291 5.2 -11.5°
Sets 03:32:32 0° 168° (SSE) 3,212 5.9 -11.2°
Enters shadow 03:32:40 - 168° (SSE) 3,258 5.9 -11.2°
